Change the Weather History Date:

Monday, March 10, 2014

  Actual Average Record
Temperature  
Mean Temperature 58 °F -  
Max Temperature 69 °F 81 °F - ()
Min Temperature 46 °F 52 °F - ()
Degree Days  
Heating Degree Days 8    
Growing Degree Days 8 (Base 50)    
Moisture  
Dew Point 46 °F    
Average Humidity 63    
Maximum Humidity 94    
Minimum Humidity 28    
Precipitation  
Precipitation 0.00 in 0.00 in - ()
Sea Level Pressure  
Sea Level Pressure 29.99 in    
Wind  
Wind Speed 5 mph ()    
Max Wind Speed 12 mph    
Max Gust Speed -    
Visibility 6.0 miles    
Events      
T = Trace of Precipitation, MM = Missing Value Source: Averaged Metar Reports

Daily Weather History Graph

Daily Weather History Graph

Search for Another Location

Airport or City:

Trip Planner

Search our weather history database for the weather conditions in past years. The results will help you decide how hot, cold, wet, or windy it might be!

Date:

Astronomy

Mar. 10, 2014 Rise Set
Actual Time 6:11 AM EET 6:01 PM EET
Civil Twilight 5:47 AM EET 6:25 PM EET
Nautical Twilight 5:20 AM EET 6:52 PM EET
Astronomical Twilight 4:53 AM EET 7:19 PM EET
Moon 12:49 PM EET (3/10) 1:45 AM EET (3/10)
Length of Visible Light 12h 37m
Length of Day
11h 50m
Waxing Gibbous, 67% of the Moon is Illuminated
Mar 10
Waxing Gibbous
Mar 16
Full
Mar 24
Last Quarter
Mar 30
New
Apr 7
First Quarter

Hourly Weather History & Observations

Time (EET) Temp. Dew Point Humidity Pressure Visibility Wind Dir Wind Speed Gust Speed Precip Events Conditions
12:00 AM 69.8 °F 51.8 °F 53% 29.95 in - NNW 6.9 mph - N/A   Clear
1:00 AM 53.6 °F 51.8 °F 94% 29.95 in - NNW 3.5 mph - N/A   Clear
2:00 AM 51 °F 47 °F 80% 29.96 in 6 mi NNW 6.9 mph - -  
2:00 AM 51.8 °F 46.4 °F 82% 29.95 in - NNW 6.9 mph - N/A   Clear
3:00 AM 50.0 °F 46.4 °F 87% 29.95 in - NNW 5.8 mph - N/A   Clear
4:00 AM 50.0 °F 46.4 °F 87% 29.95 in - WNW 2.3 mph - N/A   Clear
5:00 AM 48 °F 45 °F 84% 29.98 in 6 mi NW 4.6 mph - -  
5:00 AM 48.2 °F 44.6 °F 87% 29.95 in - NW 4.6 mph - N/A   Clear
6:00 AM 48.2 °F 44.6 °F 87% 29.98 in - NW 2.3 mph - N/A   Clear
7:00 AM 48.2 °F 44.6 °F 87% 29.98 in - WNW 4.6 mph - N/A   Clear
8:00 AM 49 °F 43 °F 73% 30.02 in 6 mi NW 6.9 mph - -  
8:00 AM 50.0 °F 42.8 °F 76% 30.01 in - NW 6.9 mph - N/A   Clear
9:00 AM 57.2 °F 42.8 °F 59% 30.04 in - NW 6.9 mph - N/A   Clear
10:00 AM 60.8 °F 42.8 °F 52% 30.04 in - NW 5.8 mph - N/A   Clear
11:00 AM 61 °F 44 °F 43% 30.05 in 6 mi North 11.5 mph - -  
11:00 AM 60.8 °F 44.6 °F 55% 30.04 in - North 11.5 mph - N/A   Clear
12:00 PM 62.6 °F 42.8 °F 48% 30.01 in - North 11.5 mph - N/A   Clear
1:00 PM 62.6 °F 42.8 °F 48% 30.01 in - NNW 9.2 mph - N/A   Clear
2:00 PM 66 °F 44 °F 33% 29.97 in 6 mi NNW 6.9 mph - -  
2:00 PM 66.2 °F 44.6 °F 46% 29.98 in - NNW 6.9 mph - N/A   Clear
3:00 PM 68.0 °F 44.6 °F 43% 29.95 in - NW 6.9 mph - N/A   Clear
4:00 PM 68.0 °F 44.6 °F 43% 29.95 in - NNW 6.9 mph - N/A   Clear
5:00 PM 68 °F 42 °F 28% 29.94 in 6 mi NNE 3.5 mph - -  
5:00 PM 68.0 °F 42.8 °F 40% 29.95 in - NNE 3.5 mph - N/A   Clear
6:00 PM 66.2 °F 42.8 °F 43% 29.98 in - NNW 4.6 mph - N/A   Clear
7:00 PM 62.6 °F 42.8 °F 48% 29.98 in - NNW 1.2 mph - N/A   Clear
8:00 PM 60 °F 49 °F 56% 30.01 in 6 mi WNW 2.3 mph - -  
8:00 PM 60.8 °F 48.2 °F 63% 30.01 in - WNW 2.3 mph - N/A   Clear
9:00 PM 59.0 °F 48.2 °F 67% 30.01 in - NW 1.2 mph - N/A   Clear
10:00 PM 59.0 °F 48.2 °F 67% 30.01 in - Calm Calm - N/A   Clear
11:00 PM 55 °F 50 °F 79% 30.02 in 6 mi SW 1.2 mph - -  
11:00 PM 55.4 °F 50.0 °F 82% 30.01 in - SW 1.2 mph - N/A   Clear